Tracking 18785 objects as of 21-July-2017
HD Live streaming from Space Station
objects crossing your sky now
MAYAK may become the brightest orbital object in the night sky!
Where is MAYAK now?
How to spot MAYAK

COSMOS 2318 (GLONASS)

Track COSMOS 2318 (GLONASS) now!
COSMOS 2318 (GLONASS) is classified as:


NORAD ID: 23622
Int'l Code: 1995-037C
Perigee: 19,079.2 km
Apogee: 19,195.0 km
Inclination: 66.3 °
Period: 675.7 minutes
Semi major axis: 25508 km
RCS: 3.5243 m2 (large)
Launch date: July 24, 1995
Source: Commonwealth of Independent States (former USSR) (CIS)
Launch site: TYURATAM MISSILE AND SPACE COMPLEX (TTMTR)
SV:
Your satellite tracking list
Your tracking list is empty





NASA's NSSDC Master Catalog

Two Line Element Set (TLE):
1 23622U 95037C   17201.14832663 -.00000046 +00000-0 +00000-0 0  9994
2 23622 066.3122 309.1692 0022714 108.2693 249.4173 02.13101214170881
Source of the keplerian elements: AFSPC